Location: Newark
(13.6797°N, 8.5297°E)
Time: 10:27:38
(UTC+00:00)

Vanguard 1 Rocket - Visible Passes

Search period start: 24 January 2020 00:00
Search period end: 03 February 2020 00:00
Orbit: 650 x 4226 km, 34.3° (Epoch: 23 January)

Date Brightness Start Highest point End Pass type
(mag) Time Alt. Az. Time Alt. Az. Time Alt. Az.
24 Jan 11.5 18:34:20 10° W 18:56:15 35° SW 19:14:37 10° SSE visible
25 Jan 9.4 05:03:57 10° S 05:07:16 20° SE 05:11:09 10° E visible
25 Jan 11.5 17:17:42 10° WNW 17:41:10 52° SW 18:03:28 10° SSE visible
25 Jan 11.7 20:02:03 10° WSW 20:13:58 15° SW 20:24:11 10° SSW visible
26 Jan 11.7 18:39:02 10° W 18:58:51 28° SW 19:16:06 10° S visible
27 Jan 8.5 05:06:10 10° SSW 05:10:09 34° SE 05:15:02 10° ENE visible
27 Jan 11.7 17:21:22 10° WNW 17:43:36 43° SW 18:05:20 10° SSE visible
27 Jan 11.8 20:13:33 10° SW 20:17:33 11° SW 20:21:19 10° SSW visible
28 Jan 9.5 03:57:37 10° SSE 03:59:26 12° SE 04:01:14 10° ESE visible
28 Jan 11.8 18:44:42 10° W 19:01:49 22° SW 19:17:11 10° S visible
29 Jan 7.3 05:08:51 10° SW 05:13:09 62° SE 05:18:25 10° ENE visible
29 Jan 11.8 17:25:30 10° W 17:46:14 35° SW 18:06:56 10° SSE visible
30 Jan 8.8 03:59:43 14° S 04:02:29 22° SE 04:06:03 10° E visible
30 Jan 11.9 18:51:50 10° WSW 19:05:14 16° SW 19:17:35 10° S visible
31 Jan 6.7 05:11:55 10° WSW 05:16:16 75° NNW 05:21:31 10° NE visible
31 Jan 11.9 17:30:19 10° W 17:49:11 28° SW 18:08:16 10° SSE visible
01 Feb 7.7 04:04:18 33° S 04:05:35 41° SE 04:09:50 10° ENE visible
01 Feb 12.0 19:01:52 10° SW 19:09:12 12° SSW 19:16:12 10° SSW visible
02 Feb 7.2 05:15:20 10° WSW 05:19:31 43° NNW 05:24:21 10° NE visible
02 Feb 12.0 17:36:03 10° WSW 17:52:30 21° SW 18:09:13 10° S visible
